User: anonymous   Login
Location: Great Northern Moose Lodge
(44.6765°N, 71.1811°W)
Time: 19:17:53
(UTC-04:00)
Language:

Terra - Orbit

View from above orbital plane
View from above orbital plane
View from above satellite
View from above satellite

Ground track
Ground track

The orbit data is extracted from the following two-line orbital elements,

1 25994U 99068A   17141.76710300 +.00000156 +00000-0 +44730-4 0  9993
2 25994 098.2112 217.1894 0001214 103.5180 256.6148 14.57114135926823
Epoch (UTC): 21 May 2017 18:24:37
Eccentricity: 0.0001214
inclination: 98.2112°
perigee height: 701 km
apogee height: 703 km
right ascension of ascending node: 217.1894°
argument of perigee: 103.5180°
revolutions per day: 14.57114135
mean anomaly at epoch: 256.6148°
orbit number at epoch: 92682

The dashed part of the orbit path shows where the satellite is in the earth's shadow,  

DLR